| time (UTC) | temp F | wind direction | speed knots | gust knots | rain 1hr in | rain 24hr in | rain mn in | humidity % | barometer mb |
| 20260506221507 | 68 | 64 | 2.6 | 0.0 | 0.00 | 0.00 | 0.12 | 77 | 1006.0 |
| 20260506220041 | 69 | 131 | 3.5 | 0.0 | 0.00 | 0.00 | 0.12 | 75 | 1005.8 |
| 20260506214521 | 69 | 137 | 3.5 | 0.0 | 0.00 | 0.00 | 0.12 | 76 | 1005.7 |
| 20260506213055 | 69 | 125 | 3.5 | 0.0 | 0.00 | 0.00 | 0.12 | 76 | 1005.7 |
| 20260506213002 | 70 | 170 | 3.5 | 0.0 | 0.00 | 0.00 | 0.12 | 76 | 1005.7 |
| 20260506211535 | 69 | 115 | 1.7 | 0.0 | 0.00 | 0.00 | 0.12 | 77 | 1005.5 |
| 20260506210020 | 69 | 107 | 2.6 | 0.0 | 0.00 | 0.00 | 0.12 | 74 | 1005.6 |
| 20260506204559 | 71 | 178 | 1.7 | 0.0 | 0.00 | 0.00 | 0.12 | 75 | 1005.5 |
| 20260506203032 | 68 | 103 | 2.6 | 0.0 | 0.00 | 0.00 | 0.12 | 76 | 1005.5 |
| 20260506201507 | 68 | 95 | 1.7 | 0.0 | 0.00 | 0.00 | 0.12 | 78 | 1005.4 |
| 20260506200043 | 69 | 125 | 1.7 | 0.0 | 0.00 | 0.00 | 0.12 | 79 | 1005.5 |
| 20260506194519 | 68 | 115 | 2.6 | 0.0 | 0.00 | 0.00 | 0.12 | 81 | 1005.6 |
| 20260506193059 | 67 | 145 | 1.7 | 0.0 | 0.00 | 0.00 | 0.12 | 81 | 1005.7 |
| 20260506191537 | 65 | 169 | 2.6 | 0.0 | 0.00 | 0.00 | 0.12 | 85 | 1005.8 |
| 20260506190012 | 64 | 135 | 1.7 | 0.0 | 0.00 | 0.00 | 0.12 | 86 | 1006.0 |
| 20260506184551 | 63 | 139 | 2.6 | 0.0 | 0.00 | 0.00 | 0.12 | 86 | 1006.3 |
| 20260506183027 | 63 | 182 | 2.6 | 0.0 | 0.00 | 0.00 | 0.12 | 86 | 1006.1 |
| 20260506181508 | 63 | 101 | 2.6 | 0.0 | 0.00 | 0.00 | 0.12 | 87 | 1006.4 |
| 20260506180048 | 62 | 111 | 2.6 | 0.0 | 0.00 | 0.00 | 0.12 | 87 | 1006.6 |
| 20260506174521 | 62 | 124 | 3.5 | 0.0 | 0.00 | 0.00 | 0.12 | 88 | 1006.5 |
| 20260506173054 | 62 | 161 | 3.5 | 0.0 | 0.00 | 0.00 | 0.12 | 89 | 1006.7 |
| 20260506173000 | 62 | 134 | 3.5 | 0.0 | 0.00 | 0.00 | 0.12 | 89 | 1006.6 |
| 20260506171550 | 62 | 128 | 4.3 | 0.0 | 0.00 | 0.00 | 0.12 | 88 | 1006.7 |
| 20260506170016 | 62 | 132 | 2.6 | 0.0 | 0.00 | 0.00 | 0.12 | 88 | 1006.5 |
| 20260506164555 | 62 | 144 | 3.5 | 0.0 | 0.00 | 0.00 | 0.12 | 88 | 1006.8 |
| 20260506163029 | 62 | 117 | 3.5 | 0.0 | 0.00 | 0.00 | 0.12 | 89 | 1006.9 |
| 20260506161505 | 62 | 129 | 4.3 | 0.0 | 0.00 | 0.00 | 0.12 | 89 | 1007.1 |
| 20260506160043 | 62 | 134 | 4.3 | 0.0 | 0.00 | 0.00 | 0.12 | 90 | 1007.0 |
| 20260506154519 | 62 | 139 | 3.5 | 0.0 | 0.00 | 0.00 | 0.10 | 88 | 1007.8 |
| 20260506153056 | 62 | 132 | 2.6 | 0.0 | 0.00 | 0.00 | 0.08 | 88 | 1008.0 |
| 20260506151538 | 61 | 136 | 2.6 | 0.0 | 0.00 | 0.00 | 0.07 | 87 | 1008.0 |
| 20260506150012 | 62 | 132 | 3.5 | 0.0 | 0.00 | 0.00 | 0.06 | 86 | 1007.7 |
| 20260506144600 | 62 | 93 | 2.6 | 0.0 | 0.00 | 0.00 | 0.04 | 85 | 1007.8 |
| 20260506143026 | 63 | 129 | 2.6 | 0.0 | 0.00 | 0.00 | 0.02 | 83 | 1008.0 |
| 20260506141507 | 63 | 122 | 4.3 | 0.0 | 0.00 | 0.00 | 0.01 | 82 | 1007.9 |
| 20260506140055 | 64 | 125 | 2.6 | 0.0 | 0.00 | 0.00 | 0.00 | 78 | 1008.0 |
| 20260506134520 | 65 | 129 | 3.5 | 0.0 | 0.00 | 0.00 | 0.00 | 73 | 1007.9 |
| 20260506133102 | 66 | 119 | 4.3 | 0.0 | 0.00 | 0.00 | 0.00 | 75 | 1007.6 |
| 20260506133000 | 66 | 130 | 4.3 | 0.0 | 0.00 | 0.00 | 0.00 | 75 | 1007.6 |
| 20260506131536 | 65 | 136 | 3.5 | 0.0 | 0.00 | 0.00 | 0.00 | 75 | 1007.7 |
| 20260506130015 | 65 | 130 | 3.5 | 0.0 | 0.00 | 0.00 | 0.00 | 74 | 1007.8 |
| 20260506124549 | 65 | 146 | 3.5 | 0.0 | 0.00 | 0.00 | 0.00 | 73 | 1007.9 |
| 20260506123029 | 66 | 93 | 4.3 | 0.0 | 0.00 | 0.00 | 0.00 | 72 | 1007.9 |
| 20260506121504 | 66 | 118 | 4.3 | 0.0 | 0.00 | 0.00 | 0.00 | 72 | 1007.9 |
| 20260506120047 | 66 | 121 | 4.3 | 0.0 | 0.00 | 0.00 | 0.00 | 73 | 1007.6 |
| 20260506114518 | 66 | 133 | 3.5 | 0.0 | 0.00 | 0.00 | 0.00 | 73 | 1007.5 |
| 20260506113100 | 65 | 168 | 3.5 | 0.0 | 0.00 | 0.00 | 0.00 | 74 | 1007.6 |
| 20260506111536 | 65 | 114 | 3.5 | 0.0 | 0.00 | 0.00 | 0.00 | 74 | 1007.3 |
| 20260506110013 | 65 | 120 | 4.3 | 0.0 | 0.00 | 0.00 | 0.00 | 74 | 1007.2 |
| 20260506104557 | 65 | 124 | 4.3 | 0.0 | 0.00 | 0.00 | 0.00 | 74 | 1007.2 |
| 20260506103031 | 64 | 118 | 4.3 | 0.0 | 0.00 | 0.00 | 0.00 | 74 | 1007.3 |
| 20260506101506 | 64 | 117 | 3.5 | 0.0 | 0.00 | 0.00 | 0.00 | 75 | 1007.2 |
| 20260506100041 | 64 | 119 | 4.3 | 0.0 | 0.00 | 0.00 | 0.00 | 75 | 1007.1 |
| 20260506094520 | 64 | 113 | 4.3 | 0.0 | 0.00 | 0.00 | 0.00 | 74 | 1007.1 |
| 20260506093055 | 64 | 138 | 4.3 | 0.0 | 0.00 | 0.00 | 0.00 | 74 | 1007.2 |
| 20260506091534 | 65 | 134 | 4.3 | 0.0 | 0.00 | 0.00 | 0.00 | 72 | 1007.3 |
| 20260506090014 | 66 | 128 | 5.2 | 0.0 | 0.00 | 0.00 | 0.00 | 71 | 1007.4 |
| 20260506084553 | 66 | 109 | 4.3 | 0.0 | 0.00 | 0.00 | 0.00 | 70 | 1007.5 |
| 20260506083032 | 67 | 157 | 3.5 | 0.0 | 0.00 | 0.00 | 0.00 | 70 | 1007.4 |
| 20260506081504 | 67 | 122 | 5.2 | 0.0 | 0.00 | 0.00 | 0.00 | 70 | 1007.3 |
| 20260506073055 | 66 | 195 | 4.3 | 0.0 | 0.00 | 0.00 | 0.00 | 71 | 1007.6 |
| 20260506071534 | 66 | 128 | 3.5 | 0.0 | 0.00 | 0.00 | 0.00 | 70 | 1007.7 |
| 20260506061504 | 66 | 126 | 3.5 | 0.0 | 0.00 | 0.00 | 0.00 | 68 | 1008.3 |
| 20260506044542 | 67 | 126 | 3.5 | 0.0 | 0.00 | 0.00 | 0.00 | 62 | 1008.7 |
| 20260506043022 | 67 | 125 | 3.5 | 0.0 | 0.00 | 0.00 | 0.00 | 61 | 1008.6 |
| 20260506041556 | 67 | 139 | 3.5 | 0.0 | 0.00 | 0.00 | 0.00 | 61 | 1008.6 |
| 20260506040040 | 67 | 139 | 3.5 | 0.0 | 0.00 | 0.00 | 0.00 | 61 | 1008.7 |
| 20260506034600 | 67 | 130 | 3.5 | 0.0 | 0.00 | 0.00 | 0.00 | 61 | 1008.7 |
| 20260506034501 | 67 | 128 | 3.5 | 0.0 | 0.00 | 0.00 | 0.00 | 61 | 1008.6 |
| 20260506033042 | 67 | 134 | 3.5 | 0.0 | 0.00 | 0.00 | 0.00 | 61 | 1008.5 |
| 20260506031519 | 68 | 120 | 3.5 | 0.0 | 0.00 | 0.00 | 0.00 | 60 | 1008.5 |
| 20260506030057 | 67 | 119 | 3.5 | 0.0 | 0.00 | 0.00 | 0.00 | 61 | 1008.3 |
| 20260506024535 | 67 | 130 | 2.6 | 0.0 | 0.00 | 0.00 | 0.00 | 61 | 1008.5 |
| 20260506023009 | 68 | 129 | 2.6 | 0.0 | 0.00 | 0.00 | 0.00 | 59 | 1008.8 |
| 20260506021555 | 68 | 119 | 2.6 | 0.0 | 0.00 | 0.00 | 0.00 | 58 | 1008.7 |
| 20260506020023 | 69 | 125 | 2.6 | 0.0 | 0.00 | 0.00 | 0.00 | 56 | 1008.4 |
| 20260506014503 | 69 | 125 | 2.6 | 0.0 | 0.00 | 0.00 | 0.00 | 56 | 1008.4 |
| 20260506013038 | 70 | 132 | 3.5 | 0.0 | 0.00 | 0.00 | 0.00 | 54 | 1008.4 |
| 20260506011517 | 71 | 124 | 4.3 | 0.0 | 0.00 | 0.00 | 0.00 | 53 | 1008.1 |
| 20260506010114 | 71 | 121 | 3.5 | 0.0 | 0.00 | 0.00 | 0.00 | 52 | 1008.0 |
| 20260506004531 | 72 | 133 | 3.5 | 0.0 | 0.00 | 0.00 | 0.00 | 51 | 1007.7 |
| 20260506003011 | 73 | 126 | 3.5 | 0.0 | 0.00 | 0.00 | 0.00 | 50 | 1007.6 |
| 20260506001547 | 73 | 129 | 4.3 | 0.0 | 0.00 | 0.00 | 0.00 | 48 | 1007.6 |
| 20260506000025 | 74 | 130 | 3.5 | 0.0 | 0.00 | 0.00 | 0.00 | 46 | 1007.2 |
| 20260505234610 | 74 | 126 | 2.6 | 0.0 | 0.00 | 0.00 | 0.00 | 44 | 1007.0 |
| 20260505234503 | 75 | 132 | 2.6 | 0.0 | 0.00 | 0.00 | 0.00 | 44 | 1007.0 |
| 20260505233041 | 75 | 136 | 2.6 | 0.0 | 0.00 | 0.00 | 0.00 | 43 | 1007.0 |
| 20260505231519 | 76 | 118 | 2.6 | 0.0 | 0.00 | 0.00 | 0.00 | 41 | 1007.1 |
| 20260505230053 | 77 | 114 | 2.6 | 0.0 | 0.00 | 0.00 | 0.00 | 40 | 1006.9 |
| 20260505224535 | 79 | 134 | 2.6 | 0.0 | 0.00 | 0.00 | 0.00 | 39 | 1006.9 |
| 20260505223010 | 80 | 123 | 2.6 | 0.0 | 0.00 | 0.00 | 0.00 | 37 | 1007.0 |